AirNav   Everest Fuels
 
 982 users online  

6PN0 UPMC East Heliport
Monroeville, Pennsylvania, USA

GOING TO MONROEVILLE?


FAA INFORMATION EFFECTIVE 21 MAY 2020

Location

FAA Identifier: 6PN0
Lat/Long: 40-26-14.1900N 079-45-38.4600W
40-26.236500N 079-45.641000W
40.4372750,-79.7606833
(estimated)
Elevation: 1182 ft. / 360 m (estimated)
From city: 1 mile W of MONROEVILLE, PA
Time zone: UTC -4 (UTC -5 during Standard Time)
Zip code: 15146

Heliport Operations

Heliport use: Private use. Permission required prior to landing
Activation date: 07/2012
Control tower: no
ARTCC: CLEVELAND CENTER
FSS: ALTOONA FLIGHT SERVICE STATION
Attendance: MON-SUN 24 HOURS/DAY
Wind indicator: lighted
Segmented circle: no
Lights: FOR PERI & FLD LGTS CALL 412-357-3891.

Heliport Communications

WX ASOS at AGC (9 nm SW): 120.55 (412-466-8968)
WX AWOS-A at 42PN (11 nm W): PHONE 412-442-2213
WX AWOS-3 at FWQ (14 nm S): 118.475 (724-379-5815)
WX AWOS-3 at LBE (19 nm SE): 118.375 (724-539-0671)

Nearby radio navigation aids

VOR radial/distance  VOR name  Freq  Var
AGCr062/16.0ALLEGHENY VOR/DME110.0009W
EWCr147/31.0ELLWOOD CITY VOR/DME115.8008W
IHDr332/33.3INDIAN HEAD VORTAC108.2006W
HLGr081/38.4WHEELING VOR/DME112.2007W

Heliport Services

Runway Information

Helipad H1

Dimensions: 80 x 80 ft. / 24 x 24 m
Surface: concrete
Runway edge lights: PERI
PERI & FLD LGTS.
Latitude: 40-26.236500N
Longitude: 079-45.641000W
Elevation: 1182.0 ft.
Traffic pattern: leftleft
Markings: basic, in good condition

Heliport Ownership and Management from official FAA records

Ownership: Privately-owned
Owner: UPMC
600 GRANT STREET, 60TH FLOOR
PITTSBURGH, PA 15219
Phone 412-357-3891
Manager: ALBERT DAWSON
2735 MOSSIDE BLVD, STE 400
MONROEVILLE, PA 15146
Phone 412-357-3891

Additional Remarks

FOR CD CTC PITTSBURGH APCH AT 412-472-5591

Instrument Procedures

There are no published instrument procedures at 6PN0.

Some nearby airports with instrument procedures:

KAGC - Allegheny County Airport (9 nm SW)
KFWQ - Rostraver Airport (14 nm S)
G05 - Finleyville Airpark (16 nm SW)
KLBE - Arnold Palmer Regional Airport (19 nm SE)
6P7 - McVille Airport (19 nm NE)
 
Loc | Ops | Rwys | IFR | FBO | Links
Com | Nav | Svcs | Stats | Notes
Aerial photo
No photo
 
Airport distance calculator
Flying to UPMC East Heliport? Find the distance to fly.

From to 6PN0

Sunrise and sunset
Times for 06-Jun-2020
 Local
(UTC-4)
 Zulu
(UTC)
Morning civil twilight05:1709:17
Sunrise05:5009:50
Sunset20:4600:46
Evening civil twilight21:1901:19

Current date and time
Zulu (UTC)  06-Jun-2020 14:44:50
Local (UTC-4)  06-Jun-2020 10:44:50
 
METAR
KAGC 
9nm SW 
061353Z VRB05KT 10SM CLR 24/19 A2996 RMK AO2 SLP140 T02440189
KP53 
14nm S 
061356Z AUTO 32011KT 08/06 A3011 RMK AO1 SLP199 T00780061
KLBE 
19nm SE 
061353Z 25008KT 10SM BKN025 24/20 A2996
TAF
KAGC 
9nm SW 
061130Z 0612/0712 26006KT P6SM SCT040 TEMPO 0612/0613 5SM BR FM061400 30006KT P6SM BKN035 FM061600 31008G16KT P6SM SKC FM071100 35005KT P6SM SKC
KLBE 
19nm SE 
061130Z 0612/0712 24008KT P6SM SCT010 BKN035 TEMPO 0612/0613 5SM BR BKN010 FM061400 25007KT P6SM BKN025 FM061600 30009G17KT P6SM BKN040 FM070200 34003KT P6SM SKC
NOTAMs
Click for the latest NOTAMs
NOTAMs are issued by the DoD/FAA and will open in a separate window not controlled by AirNav.

 

 
 

Would you like to see your business listed on this page?

 If your business provides an interesting product or service to pilots, flight crews, aircraft, or users of the UPMC East Heliport, you should consider listing it here.  To start the listing process, click on the button below
 
Add a business
 

Other Pages about UPMC East Heliport

Update a link
 
Copyright © AirNav, LLC. All rights reserved. Privacy Policy  Contact